Regional Weather Roundup
Issued by NWS

Home | Current Version | Previous Version | Text Only | Print | Product List | Glossary Off
Versions: 1 2 3 4 5 6 7 8 9 10 11 12 13 14 15 16 17 18 19 20 21 22 23 24 25 26 27 28

000
ASUS45 KTFX 141310
RWRMT
MONTANA REGIONAL WEATHER ROUNDUP
NATIONAL WEATHER SERVICE GREAT FALLS MT
600 AM MST THU DEC 14 2017

NOTE: "FAIR" INDICATES FEW OR NO CLOUDS BELOW 12000 FEET WITH NO
SIGNIFICANT WEATHER AND/OR OBSTRUCTIONS TO VISIBILITY.

MTZ001>007-043-141400-
WEST OF THE DIVIDE

CITY           SKY/WX    TMP DP  RH WIND       PRES   REMARKS
KALISPELL      CLOUDY    25  23  92 CALM      30.53R
MISSOULA       CLOUDY    26  24  92 SE5       30.50F
BUTTE          CLOUDY    24  21  88 CALM      30.42F
MULLAN PASS    FAIR      23  20  88 S5        30.36R
ANACONDA         N/A     19  16  86 SW6       30.45S WCI  11
DEER LODGE       N/A     25  25 100 CALM      30.48S
EUREKA           N/A     23  19  86 MISG      30.57S
HAMILTON         N/A     21  19  93 CALM      30.50S
LIBBY            N/A     28  25  86 CALM      30.55R
PLAINS           N/A     25  20  81 CALM      30.50F
RONAN            N/A     27  24  88 CALM      30.50S
$$

MTZ008-052>055-141400-
SOUTHWEST MONTANA

CITY           SKY/WX    TMP DP  RH WIND       PRES   REMARKS
BOZEMAN        FOG       25  22  88 W5        30.45R VSB 1/4
DILLON         FAIR      12   8  84 E5        30.42R
W YELLOWSTONE  FAIR      -6 -11  77 CALM      30.37S
ENNIS          CLOUDY    12  10  92 CALM      30.46R
THREE FORKS      N/A     25  23  91 CALM      30.39R
TWIN BRIDGES     N/A     11   3  70 CALM      30.36
$$

MTZ009-010-012-014-046-048-049-054-141400-
EAST SLOPES AND CENTRAL MONTANA

CITY           SKY/WX    TMP DP  RH WIND       PRES   REMARKS
CUT BANK       FAIR      21  18  88 W8        30.32F WCI  11
GREAT FALLS    FAIR      25  20  81 S8        30.37F WCI  16
MALMSTROM AFB  FAIR      22  21  93 SW9       30.38F WCI  12
HELENA         FOG       14  13  95 CALM      30.45S VSB 1/4
CHOTEAU          N/A     25  19  80 SW7       30.36F WCI  17
RAYNESFORD     FAIR      33  23  65 SW20      30.35F WCI  21
ULM            FAIR      23  20  87 S7        30.38F WCI  15
$$

MTZ011-013-016-021-045-047-050-051-141400-
NORTH CENTRAL MONTANA

CITY           SKY/WX    TMP DP  RH WIND       PRES   REMARKS
HAVRE          FAIR      24  21  88 SW12      30.34S WCI  13
LEWISTOWN      CLOUDY    28  22  78 W9        30.32F WCI  19
N BAR RANCH    FAIR      30  21  69 NW36G43   30.25S WCI  14
CHINOOK          N/A     25  21  86 W9        30.33S WCI  15
$$

MTZ017>020-022>027-061-062-141400-
NORTHEAST MONTANA

CITY           SKY/WX    TMP DP  RH WIND       PRES   REMARKS
GLASGOW        CLOUDY    33  26  75 NW16      30.25R WCI  23
GLENDIVE       MIX PCPN  31  28  89 NW21G30   30.18R WCI  18
JORDAN           N/A     33  24  69 NW15      30.27R WCI  23
SIDNEY         CLOUDY    34  29  82 NW16      30.17R WCI  24
WOLF POINT     CLOUDY    36  29  75 NW10      30.23R WCI  28
MALTA          CLOUDY    32  25  74 W14       30.31R WCI  22
PLENTYWOOD       N/A     30  27  86 NW9G21    30.16R WCI  22
POPLAR           N/A     36  28  75 NW13G20   30.21R WCI  27
SCOBEY           N/A     31  22  69 NW13      30.16R WCI  21
$$

MTZ028>42-056>058-141400-
SOUTHCENTRAL AND SOUTHEAST MONTANA

CITY           SKY/WX    TMP DP  RH WIND       PRES   REMARKS
BAKER          CLOUDY    30  28  92 NW21G29   30.15R WCI  17
BILLINGS       FAIR      29  22  75 W13       30.31R WCI  19
LIVINGSTON     MOCLDY    26  22  84 W12       30.38R WCI  16
MILES CITY     CLOUDY    34  25  69 NW16G24   30.25R WCI  24
BIG TIMBER     CLEAR     32  23  69 W22G32    30.36R WCI  19
EKALAKA          N/A     28  23  81 W16       30.11R WCI  16
FORSYTH          N/A     34  23  64 W12       30.27R WCI  25
LAUREL           N/A     32  21  64 NW12      30.32R WCI  23
$$

REGIONAL REPORTS...DAKOTAS

CITY           SKY/WX    TMP DP  RH WIND       PRES   REMARKS
WILLISTON      CLOUDY    33  26  75 N20G30    30.15R WCI  21
MINOT          CLOUDY    32  26  78 NW16      30.04R WCI  21
DICKINSON      CLOUDY    31  27  85 NW21G31   30.06R WCI  18
BEACH          MIX PCPN  30  28  93 NW20G26   30.16R WCI  18
CROSBY         CLOUDY    28  25  86 N20G25    30.15R WCI  15
TIOGA          CLOUDY    30  28  93 N22G31    30.11R WCI  17
WATFORD CITY   CLOUDY    32  28  86 N20G28    30.12R WCI  20
BISMARCK       CLOUDY    34  30  85 NW13G22   30.02R WCI  25
GRAND FORKS    CLOUDY    20  18  92 W5        30.01R
FARGO          FLURRIES  20  17  88 W5        30.01S
BUFFALO SD       N/A     32  28  85 NW24G36   30.04R WCI  19
RAPID CITY     MOCLDY    35  24  64 NW44G55   30.08R WCI  19
$$

REGIONAL REPORTS...WYOMING/IDAHO/WASHINGTON

CITY           SKY/WX    TMP DP  RH WIND       PRES   REMARKS
GILLETTE       CLOUDY    32  21  64 NW24G36   30.19R WCI  19
SHERIDAN       FAIR      34  22  61 NW22G31   30.27R WCI  22
BUFFALO WY     MOCLDY    34  17  50 N36G51    30.20R WCI  19
CODY           FAIR      23  19  85 SW6       30.30R WCI  16
YELLOWSTONE LA   N/A      1  -3  83 CALM      30.35S
IDAHO FALLS    FOG       22  21  96 SW7       30.45S VSB 1/4 WCI  13
SALMON         CLOUDY    22  20  92 CALM      30.51S
BOISE          CLOUDY    25  22  88 SE8       30.53S WCI  16
SPOKANE        CLOUDY    30  27  88 N5        30.53S
$$

REGIONAL REPORTS...ALBERTA

CITY           SKY/WX    TMP DP  RH WIND       PRES   REMARKS
EDMONTON       CLEAR     23  19  86 SW6       30.23F WCI  16
CALGARY        PTCLDY    27  18  69 SW7       30.27F WCI  19
LETHBRIDGE     PTCLDY    23  19  86 S8G23     30.32F WCI  14
MEDICINE HAT   PTCLDY    21  19  93 S6        30.32F WCI  14
$$

REGIONAL REPORTS...SASKATCHEWAN

CITY           SKY/WX    TMP DP  RH WIND       PRES   REMARKS
SWIFT CURRENT  MOCLDY    25  23  93 NW12      30.21S WCI  14
REGINA         FLURRIES  28  25  86 NW9       30.16S WCI  20
SASKATOON      CLOUDY    28  25  86 W9        30.18F WCI  20
$$




USA.gov is the U.S. government's official web portal to all federal, state and local government web resources and services.